SL-19 DEB, 23486

Orbit data source: Space-Track

SL-19 DEB, 23486 is space debris in LEO originally from a launch on Mon, 26 Dec 1994 UTC launched from the Tyuratam Missile And Space Complex (TTMTR). Debris objects in space refer to the collection of defunct objects orbiting the Earth. Examples of debris include non-operational satellites, rocket bodies, and fragments generated from explosions, collisions, or faulty payload assembly.

Loading next visibility...
Identifier
23486, 1994-085J
Orbit
LEO
Country
Flag of CISCIS
Related business
Manufacturer
Unknown
Mission
Spacecraft
Bus & Motor
Unknown
Mass
Unknown
Launch date (UTC)
1994-12-26 (31 years ago)
Launch vehicle
Unknown
Launch site
Tyuratam Missile And Space Complex (TTMTR)
Object type
Payload
Rocket body
Debris
Shape & HBR
Unknown
Radar Cross Section
Small (<0.1 m²)

Expand to show TLE details & history
Last TLE update: 1 day ago

TLE from 1 day ago
0 SL-19 DEB
1 23486U 94085J   25260.11400578 -.00000231  00000-0 -54355-2 0  9992
2 23486  64.9169 201.9215 0185189 289.5857  80.3903 11.25677105572402
Epoch: 2025-09-17T02:44Z
TLE epoch observation values (Epoch: 2025-09-17T02:44:10.099Z)
Latitude
10.89542°
Longitude
169.73009°
Altitude
2,009.549 km
Speed
6.905 km/s
True Right ascension
13h 48m 16s
True Declination
10° 50' 29"
Sunlit
Object was in daylight at epoch
Visualization orbit readout
Latitude
Unknown
Longitude
Unknown
Altitude
Unknown
Speed
Unknown
Apparent Right ascension
Unknown
Apparent Declination
Unknown
Sunlit
N/A
Visualization observer readout
Local Sidereal Time
06:15:51
Azimuth
Unknown
Elevation
Unknown
Doppler factor
Unknown
Orbital elements
Apogee altitude
2,186.316 km
Perigee altitude
1,874.875 km
Semi-major axis
8,408.733 km
Eccentricity
0.01852
Inclination
64.9169°
RAAN
201.9215°
Arg. of periapsis
289.5857°
True anomaly
82.49028°
Mean anomaly
80.3903°
Eccentric anomaly
81.43953°
Mean motion
2.8148 °/min
Orbital period
127.9 mins
BSTAR
-0.0054355
Loading maneuver chart data...
Computing Atmospheric mass density...
Loading historical data...
Loading historical data...
Loading historical data...
Loading historical data...
Loading historical data...
Loading historical data...
Loading historical data...

Documentation

Showing up to 5 results
|